Location: Bangkok
(13.7500°N, 100.5170°E)
Time: 00:40:38
(UTC+07:00)

Hubble Space Telescope - Visible Passes

Search period start: 04 December 2016 00:00
Search period end: 14 December 2016 00:00
Orbit: 538 x 542 km, 28.5° (Epoch: 02 December)

Date Brightness Start Highest point End Pass type
(mag) Time Alt. Az. Time Alt. Az. Time Alt. Az.
04 Dec 2.0 18:19:38 10° NW 18:23:07 26° NNE 18:26:12 12° ENE visible
04 Dec 3.2 20:00:21 10° WNW 20:01:36 19° WNW 20:01:36 19° WNW visible
05 Dec 1.6 18:09:33 10° NW 18:13:19 32° NNE 18:17:03 10° E visible
05 Dec 2.4 19:50:34 10° WNW 19:53:06 33° W 19:53:06 33° W visible
06 Dec 2.1 19:40:52 10° W 19:44:39 35° SSW 19:44:46 35° SSW visible
07 Dec 2.8 19:31:18 10° W 19:34:44 25° SSW 19:36:37 18° S visible
08 Dec 3.4 19:21:56 10° WSW 19:24:49 18° SSW 19:27:42 10° SSE visible
09 Dec 3.7 19:12:56 10° WSW 19:14:53 13° SSW 19:16:51 10° S visible
13 Dec 3.9 05:02:08 10° SSE 05:03:05 11° SSE 05:04:01 10° SE visible
